Voltar ao catálogo

ASTRA 1KR

AtivoComunicaçõesGEO
NORAD 29055·PAYLOAD·🇱🇺 Luxembourg

Lançado Apr 20, 2006 de Cape Canaveral Space Force Station

Loading…

TLE

AtualizadoSource: CelesTrak SupGP

Época: Sep 13, 2026, 23:30 UTC

1 29055C 06012A   26256.97916667  .00000209  00000+0  00000+0 0  2567
2 29055   0.6972  82.6666 0003536  90.8823 190.9152  1.00273098    16

Acompanhe ASTRA 1KR em tempo real com AllMySat

Download on the App Store